DW1779 Weather Reports


Display with metric or nautical units.
time (UTC)temp
F
wind
direction
speed
MPH
gust
MPH
rain 1hr
in
rain 24hr
in
rain mn
in
humidity
%
barometer
mb
20260509175053 76 294 5.0 11.0 0.00 0.54 0.01 56 1011.1
20260509174552 76 285 4.0 14.0 0.00 0.54 0.01 55 1011.1
20260509174051 76 307 7.0 14.0 0.00 0.54 0.01 55 1011.3
20260509173549 75 275 6.0 12.0 0.00 0.54 0.01 54 1011.2
20260509173057 75 273 5.0 14.0 0.00 0.54 0.01 56 1011.2
20260509172550 75 280 5.0 14.0 0.00 0.54 0.01 58 1011.3
20260509172047 75 315 4.0 10.0 0.00 0.54 0.01 58 1011.3
20260509171559 74 317 2.0 13.0 0.00 0.54 0.01 63 1011.3
20260509171045 74 322 4.0 17.0 0.00 0.54 0.01 58 1011.4
20260509170645 74 288 7.0 17.0 0.00 0.54 0.01 58 1011.5
20260509170055 74 311 5.0 13.0 0.00 0.54 0.01 60 1011.4
20260509165554 74 337 4.0 9.0 0.00 0.54 0.01 61 1011.4
20260509165052 74 290 3.0 8.0 0.00 0.54 0.01 67 1011.5
20260509164553 73 335 2.0 10.0 0.00 0.54 0.01 64 1011.5
20260509164053 73 292 4.0 10.0 0.00 0.54 0.01 63 1011.7
20260509163551 73 283 4.0 10.0 0.00 0.54 0.01 66 1011.7
20260509163055 73 301 3.0 11.0 0.00 0.54 0.01 68 1011.7
20260509162551 72 324 4.0 9.0 0.00 0.54 0.01 64 1011.6
20260509162046 72 271 1.0 11.0 0.00 0.54 0.01 69 1011.7
20260509161544 72 313 2.0 11.0 0.00 0.54 0.01 66 1011.8
20260509161042 71 263 3.0 9.0 0.00 0.54 0.01 67 1011.8
20260509160514 71 5 3.0 9.0 0.00 0.54 0.01 65 1011.8
20260509160017 71 296 3.0 9.0 0.00 0.54 0.01 68 1011.8
20260509155512 71 315 1.0 9.0 0.00 0.54 0.01 70 1011.7
20260509155016 70 296 5.0 9.0 0.00 0.54 0.01 68 1011.6
20260509154507 70 249 4.0 9.0 0.00 0.54 0.01 71 1011.6
20260509154006 70 265 3.0 9.0 0.00 0.54 0.01 70 1011.7
20260509153504 69 286 3.0 8.0 0.00 0.54 0.01 76 1011.6
20260509153103 69 321 2.0 9.0 0.00 0.54 0.01 73 1011.7
20260509152501 69 267 5.0 10.0 0.00 0.54 0.01 73 1011.6
20260509152101 68 273 2.0 10.0 0.00 0.54 0.01 75 1011.7
20260509151607 68 265 4.0 11.0 0.00 0.54 0.01 75 1011.7
20260509151100 68 34 5.0 11.0 0.00 0.54 0.01 75 1011.6
20260509150511 67 9 4.0 10.0 0.00 0.54 0.01 77 1011.5
20260509150010 67 299 3.0 6.0 0.01 0.54 0.01 80 1011.5
20260509145509 67 240 2.0 8.0 0.01 0.54 0.01 81 1011.5
20260509145008 66 298 4.0 8.0 0.01 0.54 0.01 82 1011.5
20260509144506 66 309 2.0 9.0 0.01 0.54 0.01 83 1011.5
20260509144004 65 277 5.0 9.0 0.01 0.54 0.01 83 1011.4
20260509143501 65 249 1.0 8.0 0.01 0.54 0.01 86 1011.6
20260509143100 64 295 3.0 8.0 0.01 0.54 0.01 88 1011.6
20260509142558 64 291 2.0 5.0 0.01 0.54 0.01 91 1011.4
20260509142057 63 236 1.0 8.0 0.01 0.54 0.01 95 1011.5
20260509141556 62 295 3.0 8.0 0.01 0.54 0.01 96 1011.5
20260509141054 61 326 1.0 4.0 0.01 0.54 0.01 97 1011.3
20260509140501 60 335 2.0 4.0 0.01 0.54 0.01 98 1011.2
20260509140107 59 257 1.0 8.0 0.00 0.53 0.00 98 1011.3
20260509135601 58 339 3.0 8.0 0.00 0.53 0.00 98 1011.3
20260509135057 58 126 0.0 3.0 0.00 0.53 0.00 98 1011.2
20260509134607 57 157 0.0 2.0 0.00 0.53 0.00 98 1011.2
20260509134053 57 157 0.0 2.0 0.00 0.53 0.00 98 1011.1
20260509133552 56 88 0.0 2.0 0.00 0.53 0.00 98 1011.1
20260509133052 55 5 0.0 2.0 0.00 0.53 0.00 98 1011.1
20260509132551 54 355 0.0 2.0 0.00 0.53 0.00 98 1011.1
20260509132052 53 360 0.0 1.0 0.00 0.53 0.00 98 1011.0
20260509131605 53 360 0.0 2.0 0.00 0.53 0.00 98 1010.9
20260509131048 53 5 0.0 2.0 0.00 0.53 0.00 98 1011.0
20260509130648 52 15 0.0 1.0 0.00 0.53 0.00 97 1010.9
20260509125551 51 360 0.0 1.0 0.00 0.53 0.00 97 1010.8
20260509125055 51 347 0.0 1.0 0.00 0.53 0.00 97 1010.9
20260509124550 51 355 0.0 1.0 0.00 0.53 0.00 97 1010.9
20260509124048 50 343 0.0 1.0 0.00 0.53 0.00 97 1010.8
20260509123548 50 327 0.0 1.0 0.00 0.53 0.00 97 1010.8
20260509123052 50 327 0.0 1.0 0.00 0.53 0.00 97 1010.8
20260509122546 50 325 0.0 1.0 0.00 0.53 0.00 97 1010.8
20260509122045 50 325 0.0 1.0 0.00 0.53 0.00 97 1010.7
20260509121549 50 325 0.0 1.0 0.00 0.53 0.00 97 1010.7
20260509121048 50 325 0.0 1.0 0.00 0.53 0.00 97 1010.6
20260509120645 50 325 0.0 1.0 0.00 0.53 0.00 97 1010.6
20260509120058 50 347 0.0 2.0 0.00 0.53 0.00 97 1010.6
20260509115552 50 178 0.0 1.0 0.00 0.53 0.00 97 1010.5
20260509115051 49 178 0.0 1.0 0.00 0.53 0.00 97 1010.5
20260509114605 49 178 0.0 1.0 0.00 0.53 0.00 97 1010.5
20260509114049 49 178 0.0 1.0 0.00 0.53 0.00 97 1010.5
20260509113549 49 178 0.0 0.0 0.00 0.53 0.00 97 1010.4
20260509113053 49 178 0.0 0.0 0.00 0.53 0.00 97 1010.4
20260509112546 49 178 0.0 0.0 0.00 0.53 0.00 97 1010.4
20260509112045 49 178 0.0 0.0 0.00 0.53 0.00 97 1010.2
20260509111546 49 178 0.0 0.0 0.00 0.53 0.00 97 1010.1
20260509111047 49 178 0.0 0.0 0.00 0.53 0.00 97 1010.1
20260509110514 49 178 0.0 1.0 0.00 0.53 0.00 97 1010.1
20260509110001 49 178 0.0 1.0 0.00 0.53 0.00 97 1009.7
20260509105501 49 178 0.0 0.0 0.00 0.53 0.00 97 1009.6
20260509105003 49 178 0.0 0.0 0.00 0.53 0.00 97 1009.7
20260509104610 49 178 0.0 0.0 0.00 0.53 0.00 97 1009.7
20260509104059 50 178 0.0 0.0 0.00 0.53 0.00 97 1009.7
20260509103557 50 178 0.0 0.0 0.00 0.53 0.00 97 1009.7
20260509103056 50 178 0.0 0.0 0.00 0.53 0.00 97 1009.7
20260509102556 50 178 0.0 0.0 0.00 0.53 0.00 97 1009.7
20260509102055 51 178 0.0 0.0 0.00 0.53 0.00 97 1009.7
20260509101555 51 178 0.0 0.0 0.00 0.53 0.00 97 1009.7
20260509101057 51 178 0.0 0.0 0.00 0.53 0.00 97 1009.9
20260509100653 51 178 0.0 1.0 0.00 0.53 0.00 97 1009.9
20260509100056 51 178 0.0 1.0 0.00 0.53 0.00 97 1009.8
20260509095557 52 178 0.0 1.0 0.00 0.53 0.00 97 1009.8
20260509095055 52 178 0.0 1.0 0.00 0.53 0.00 97 1010.1
20260509094607 52 178 0.0 1.0 0.00 0.53 0.00 97 1010.1
20260509094054 52 178 0.0 1.0 0.00 0.53 0.00 97 1010.0
20260509093552 52 178 0.0 0.0 0.00 0.53 0.00 97 1009.9
20260509093052 52 178 0.0 1.0 0.00 0.53 0.00 97 1009.9
20260509092552 52 178 0.0 3.0 0.00 0.53 0.00 97 1010.0
20260509092050 53 177 0.0 2.0 0.00 0.53 0.00 97 1010.0
20260509091552 53 214 0.0 1.0 0.00 0.53 0.00 97 1010.0
20260509091050 53 305 0.0 1.0 0.00 0.53 0.00 97 1009.9
20260509090648 53 305 0.0 1.0 0.00 0.53 0.00 97 1009.7
20260509090101 53 305 0.0 1.0 0.00 0.53 0.00 97 1009.4
20260509085551 53 305 0.0 1.0 0.00 0.53 0.00 97 1009.3
20260509085050 53 305 0.0 1.0 0.00 0.53 0.00 97 1009.5
20260509084557 53 305 0.0 2.0 0.00 0.53 0.00 97 1009.6
20260509084048 54 305 0.0 2.0 0.00 0.53 0.00 97 1009.7
20260509083546 54 292 0.0 3.0 0.00 0.53 0.00 97 1009.6
20260509083049 54 289 0.0 3.0 0.00 0.53 0.00 97 1009.5
20260509082546 54 179 0.0 4.0 0.00 0.53 0.00 97 1009.6
20260509082046 54 179 1.0 4.0 0.00 0.53 0.00 97 1009.6
20260509081546 55 191 1.0 4.0 0.00 0.53 0.00 97 1009.6
20260509081046 55 200 1.0 3.0 0.00 0.53 0.00 97 1009.6
20260509080645 55 236 0.0 2.0 0.00 0.53 0.00 97 1009.5
20260509080042 55 213 0.0 2.0 0.00 0.53 0.00 97 1009.1
20260509075542 55 178 0.0 2.0 0.00 0.53 0.00 97 1009.2
20260509075042 55 248 0.0 3.0 0.00 0.53 0.00 97 1009.3
20260509074549 55 203 0.0 3.0 0.00 0.53 0.00 97 1009.3
20260509074042 55 196 0.0 3.0 0.00 0.53 0.00 97 1009.2
20260509073541 55 186 1.0 3.0 0.00 0.53 0.00 97 1009.2
20260509073040 55 217 0.0 3.0 0.00 0.53 0.00 97 1009.2
20260509072544 55 196 0.0 3.0 0.00 0.53 0.00 97 1009.3
20260509072040 55 306 1.0 3.0 0.00 0.53 0.00 97 1009.4
20260509071540 56 235 0.0 2.0 0.00 0.53 0.00 97 1009.3
20260509071040 56 239 0.0 4.0 0.00 0.53 0.00 97 1009.4
20260509070640 56 192 0.0 6.0 0.00 0.53 0.00 97 1009.4
20260509070105 56 236 2.0 6.0 0.00 0.53 0.00 97 1009.7
20260509065555 56 209 1.0 3.0 0.00 0.53 0.00 97 1009.6
20260509065055 56 191 1.0 3.0 0.00 0.53 0.00 97 1009.5
20260509064555 56 277 1.0 3.0 0.00 0.53 0.00 97 1009.7
20260509064054 56 188 0.0 3.0 0.00 0.53 0.00 97 1009.7
20260509063553 56 188 1.0 3.0 0.00 0.53 0.00 97 1009.7
20260509063054 56 198 1.0 3.0 0.00 0.53 0.00 97 1009.6
20260509062553 56 163 0.0 0.0 0.00 0.53 0.00 97 1009.6
20260509062054 55 163 0.0 0.0 0.00 0.53 0.00 97 1009.6
20260509061556 55 163 0.0 0.0 0.00 0.53 0.00 97 1009.6
20260509061052 55 163 0.0 0.0 0.00 0.53 0.00 96 1009.6
20260509060653 55 163 0.0 0.0 0.00 0.53 0.00 96 1009.7
20260509060059 55 163 0.0 0.0 0.00 0.53 0.00 96 1009.7
20260509055555 54 163 0.0 0.0 0.00 0.53 0.00 96 1009.7
20260509055055 54 163 0.0 0.0 0.00 0.53 0.00 96 1009.6
20260509054613 54 163 0.0 0.0 0.00 0.53 0.00 96 1009.6
20260509054053 55 163 0.0 0.0 0.00 0.53 0.00 96 1009.5
20260509053552 55 163 0.0 0.0 0.00 0.53 0.00 96 1009.5
20260509053141 55 163 0.0 0.0 0.00 0.53 0.00 96 1009.6
20260509052555 55 143 0.0 0.0 0.01 0.53 0.00 96 1009.5
20260509052053 55 143 0.0 0.0 0.01 0.53 0.00 96 1009.3
20260509051553 56 143 0.0 1.0 0.01 0.53 0.00 96 1009.3
20260509051048 56 143 0.0 1.0 0.03 0.53 0.00 96 1009.2
20260509050649 56 143 0.0 1.0 0.05 0.53 0.00 96 1009.2
20260509050048 56 143 0.0 2.0 0.07 0.53 0.00 96 1009.1
20260509045545 56 144 0.0 3.0 0.10 0.53 0.53 96 1009.1
20260509045045 57 160 1.0 5.0 0.17 0.53 0.53 96 1009.2
20260509044548 57 168 2.0 5.0 0.25 0.53 0.53 96 1009.1
20260509044044 57 138 1.0 5.0 0.28 0.53 0.53 96 1009.2
20260509043545 57 170 1.0 7.0 0.30 0.53 0.53 96 1009.3
20260509043044 57 116 0.0 7.0 0.31 0.53 0.53 96 1009.4
20260509042544 57 112 1.0 4.0 0.33 0.52 0.52 96 1009.4
20260509042044 57 111 1.0 3.0 0.33 0.52 0.52 96 1009.5
20260509041544 57 144 0.0 2.0 0.33 0.52 0.52 96 1009.9
20260509041043 57 236 0.0 2.0 0.36 0.50 0.50 95 1010.1
20260509040643 57 75 0.0 4.0 0.43 0.48 0.48 95 1010.1
20260509040106 57 24 0.0 6.0 0.42 0.46 0.46 95 1010.4
20260509035546 57 313 2.0 6.0 0.38 0.42 0.42 95 1010.8
20260509035046 57 293 3.0 10.0 0.31 0.35 0.35 95 1010.6
20260509034557 57 24 3.0 12.0 0.24 0.28 0.28 95 1010.6
20260509034045 57 360 3.0 13.0 0.22 0.25 0.25 95 1010.2
20260509033544 57 319 4.0 13.0 0.20 0.23 0.23 95 1010.4
20260509033045 57 20 4.0 9.0 0.18 0.21 0.21 94 1010.4
20260509032545 58 340 2.0 6.0 0.16 0.19 0.19 94 1010.5
20260509032044 58 351 2.0 6.0 0.16 0.19 0.19 94 1010.1
20260509031544 58 5 4.0 10.0 0.16 0.19 0.19 94 1010.2
20260509031044 58 13 5.0 12.0 0.11 0.14 0.14 94 1010.7
20260509030644 58 311 4.0 12.0 0.02 0.05 0.05 94 1010.4
20260509030041 58 5 5.0 14.0 0.01 0.04 0.04 93 1009.2
20260509025540 58 5 6.0 14.0 0.01 0.04 0.04 93 1008.9
20260509025041 59 77 4.0 14.0 0.01 0.04 0.04 93 1009.2
20260509024543 59 324 3.0 12.0 0.01 0.04 0.04 94 1009.3
20260509024040 59 355 6.0 15.0 0.00 0.03 0.03 94 1009.3
20260509023539 58 17 2.0 15.0 0.00 0.03 0.03 94 1009.2
20260509023046 58 340 6.0 14.0 0.00 0.03 0.03 94 1009.0
20260509022539 59 315 5.0 12.0 0.00 0.03 0.03 94 1009.0
20260509022039 59 211 0.0 2.0 0.00 0.03 0.03 94 1007.8
20260509021539 59 164 0.0 4.0 0.00 0.03 0.03 94 1007.6
20260509021042 59 182 2.0 4.0 0.00 0.03 0.03 94 1007.6
20260509020507 58 160 1.0 4.0 0.00 0.03 0.03 94 1007.7
20260509020007 59 161 1.0 4.0 0.00 0.03 0.03 94 1007.7
20260509015508 59 157 1.0 3.0 0.00 0.03 0.03 94 1007.8
20260509015007 58 157 0.0 3.0 0.00 0.03 0.03 94 1008.0
20260509014506 58 142 1.0 3.0 0.01 0.03 0.03 94 1008.1
20260509014006 59 186 0.0 3.0 0.01 0.03 0.03 94 1008.3
20260509013507 59 117 1.0 3.0 0.01 0.03 0.03 94 1008.4
20260509013007 59 150 1.0 3.0 0.01 0.03 0.03 94 1008.3
20260509012506 59 166 0.0 3.0 0.02 0.03 0.03 94 1008.4
20260509012007 59 155 1.0 3.0 0.02 0.03 0.03 93 1008.4
20260509011506 59 145 0.0 2.0 0.03 0.03 0.03 93 1008.3
20260509011108 59 124 0.0 4.0 0.03 0.03 0.03 93 1008.4
20260509010651 59 136 0.0 4.0 0.03 0.03 0.03 93 1007.2
20260509010056 59 125 1.0 2.0 0.03 0.03 0.03 92 1007.6
20260509005556 59 107 0.0 1.0 0.03 0.03 0.03 92 1007.7
20260509005055 59 70 0.0 3.0 0.03 0.03 0.03 91 1007.7
20260509004554 60 69 1.0 3.0 0.02 0.02 0.02 91 1007.7
20260509004054 60 114 1.0 4.0 0.02 0.02 0.02 90 1008.0
20260509003555 60 294 1.0 4.0 0.02 0.02 0.02 88 1007.9
20260509003118 61 347 1.0 3.0 0.02 0.02 0.02 86 1007.8
20260509002554 62 292 1.0 9.0 0.01 0.01 0.01 82 1007.8
20260509002055 63 240 2.0 12.0 0.01 0.01 0.01 78 1007.8
20260509001602 65 301 5.0 17.0 0.00 0.00 0.00 73 1007.9
20260509001054 67 321 5.0 18.0 0.00 0.00 0.00 68 1007.8
20260509000654 69 290 8.0 18.0 0.00 0.00 0.00 67 1007.9
20260509000108 69 165 0.0 2.0 0.00 0.00 0.00 67 1007.4
20260508235552 69 189 0.0 3.0 0.00 0.00 0.00 68 1007.4
20260508235052 70 201 0.0 5.0 0.00 0.00 0.00 67 1007.3
20260508234551 70 194 1.0 5.0 0.00 0.00 0.00 64 1007.3
20260508234053 70 209 0.0 1.0 0.00 0.00 0.00 65 1007.4
20260508233551 71 210 0.0 2.0 0.00 0.00 0.00 64 1007.5
20260508233051 71 196 1.0 2.0 0.00 0.00 0.00 63 1007.6
20260508232550 71 240 0.0 3.0 0.00 0.00 0.00 67 1007.6
20260508232050 72 240 0.0 3.0 0.00 0.00 0.00 60 1007.6
20260508231552 72 186 1.0 5.0 0.00 0.00 0.00 58 1007.6
20260508231050 72 200 2.0 6.0 0.00 0.00 0.00 57 1007.6
20260508230652 73 197 2.0 9.0 0.00 0.00 0.00 55 1007.7
20260508225600 73 178 2.0 7.0 0.00 0.00 0.00 56 1007.6
20260508225101 73 158 3.0 7.0 0.00 0.00 0.00 57 1007.6
20260508224607 73 191 2.0 8.0 0.00 0.00 0.00 56 1007.6
20260508224058 73 196 3.0 8.0 0.00 0.00 0.00 55 1007.6
20260508223558 73 182 1.0 5.0 0.00 0.00 0.00 55 1007.7
20260508223058 73 203 1.0 10.0 0.00 0.00 0.00 58 1007.6
20260508222557 73 223 3.0 11.0 0.00 0.00 0.00 52 1007.7
20260508222057 74 31 4.0 11.0 0.00 0.00 0.00 54 1007.7
20260508221559 74 324 0.0 7.0 0.00 0.00 0.00 52 1007.8
20260508221057 74 205 2.0 7.0 0.00 0.00 0.00 54 1007.8
20260508220657 75 195 1.0 10.0 0.00 0.00 0.00 53 1007.8
20260508220058 74 188 4.0 10.0 0.00 0.00 0.00 51 1007.8
20260508215558 75 317 4.0 10.0 0.00 0.00 0.00 51 1007.7
20260508215100 75 347 2.0 8.0 0.00 0.00 0.00 54 1007.7
20260508214557 74 220 2.0 6.0 0.00 0.00 0.00 52 1007.8
20260508214056 74 159 2.0 9.0 0.00 0.00 0.00 52 1007.8
20260508213557 74 228 4.0 9.0 0.00 0.00 0.00 50 1007.9
20260508213102 75 270 2.0 8.0 0.00 0.00 0.00 51 1008.0
20260508212555 75 230 2.0 8.0 0.00 0.00 0.00 52 1008.0
20260508212054 75 173 1.0 7.0 0.00 0.00 0.00 52 1008.1
20260508211553 75 181 2.0 9.0 0.00 0.00 0.00 56 1008.1
20260508211057 75 117 2.0 9.0 0.00 0.00 0.00 55 1008.2
20260508210652 74 214 3.0 9.0 0.00 0.00 0.00 53 1008.3
20260508210058 73 173 2.0 9.0 0.00 0.00 0.00 55 1008.4
20260508205557 73 177 3.0 9.0 0.00 0.00 0.00 52 1008.6
20260508205057 74 36 2.0 8.0 0.00 0.00 0.00 53 1008.6
20260508204556 75 33 2.0 8.0 0.00 0.00 0.00 51 1008.7
20260508204055 73 229 1.0 6.0 0.00 0.00 0.00 55 1008.8
20260508203557 73 205 1.0 7.0 0.00 0.00 0.00 53 1008.9
20260508203055 73 182 2.0 7.0 0.00 0.00 0.00 53 1008.9
20260508202553 73 187 2.0 7.0 0.00 0.00 0.00 52 1009.1
20260508202052 74 150 3.0 8.0 0.00 0.00 0.00 55 1009.4
20260508201602 73 192 3.0 8.0 0.00 0.00 0.00 52 1009.4
20260508201051 72 327 4.0 9.0 0.00 0.00 0.00 54 1009.5
20260508200650 72 307 2.0 9.0 0.00 0.00 0.00 56 1009.6
20260508200106 71 201 1.0 7.0 0.00 0.00 0.00 52 1009.6
20260508195554 71 197 2.0 7.0 0.00 0.00 0.00 52 1009.7
20260508195054 71 273 2.0 8.0 0.00 0.00 0.00 51 1009.8
20260508194557 71 314 3.0 9.0 0.00 0.00 0.00 54 1009.9
20260508194055 71 198 3.0 10.0 0.00 0.00 0.00 51 1009.8
20260508193552 71 199 2.0 8.0 0.00 0.00 0.00 54 1010.0
20260508193100 72 171 2.0 9.0 0.00 0.00 0.00 55 1010.1
20260508192551 72 199 3.0 10.0 0.00 0.00 0.00 54 1010.1
20260508192050 72 193 3.0 10.0 0.00 0.00 0.00 49 1010.1
20260508191550 73 240 3.0 10.0 0.00 0.00 0.00 50 1010.2
20260508191048 73 184 3.0 10.0 0.00 0.00 0.00 52 1010.2
20260508190649 73 155 3.0 10.0 0.00 0.00 0.00 50 1010.2
20260508190048 73 163 5.0 10.0 0.00 0.00 0.00 49 1010.3
20260508185549 73 196 4.0 14.0 0.00 0.00 0.00 50 1010.4
20260508185045 73 188 6.0 14.0 0.00 0.00 0.00 50 1010.5
20260508184554 73 175 6.0 16.0 0.00 0.00 0.00 47 1010.4
20260508184043 73 31 5.0 16.0 0.00 0.00 0.00 47 1010.6
20260508183543 74 204 4.0 12.0 0.00 0.00 0.00 50 1010.6
20260508183049 73 125 4.0 21.0 0.00 0.00 0.00 50 1010.6
20260508182541 73 203 4.0 21.0 0.00 0.00 0.00 50 1010.7
20260508182041 74 182 4.0 14.0 0.00 0.00 0.00 48 1010.6
20260508181543 74 204 4.0 13.0 0.00 0.00 0.00 49 1010.7
20260508181040 75 202 3.0 10.0 0.00 0.00 0.00 51 1010.7
20260508180507 74 205 3.0 10.0 0.00 0.00 0.00 52 1010.8
20260508180005 74 213 2.0 10.0 0.00 0.00 0.00 49 1010.8
20260508175505 74 198 4.0 11.0 0.00 0.00 0.00 49 1011.0